Location: Nianha
(10.8000°N, 4.6333°W)
Time: 13:15:13
(UTC+00:00)

COSMO-SKYMED 1 - Pass Details

Date: 14 November 2019
Orbit: 621 x 623 km, 97.9° (Epoch: 17 January)

Event Time Altitude Azimuth Distance (km) Brightness Sun altitude
Rises 05:44:52 0° 164° (SSE) 2,889 6.5 -7.6°
Reaches altitude 10° 05:47:04 10° 162° (SSE) 1,984 5.7 -7.1°
Maximum altitude 05:51:21 71° 78° (ENE) 657 2.9 -6.0°
Drops below altitude 10° 05:55:39 10° 354° (N) 1,984 4.9 -5.0°
Sets 05:57:50 0° 352° (N) 2,890 5.7 -4.5°
